Terminal Aerodrome Forecast
Issued by NWS Huntsville, AL

Home | Current Version | Previous Version | Text Only | Print | Product List | Glossary On
Versions: 1 2 3 4 5 6 7 8 9 10 11 12 13 14 15 16 17 18 19 20 21 22 23 24 25 26 27 28 29 30 31 32 33 34 35 36 37 38 39 40
000
FTUS44 KHUN 301134
TAFHSV
TAF
KHSV 301134Z 3012/3112 31005KT P6SM BKN025
      TEMPO 3012/3013 4SM BR BKN015
     FM301500 01008KT P6SM SCT250
     FM302200 01012G18KT P6SM SKC
     FM310300 02007KT P6SM SKC=

USA.gov is the U.S. government's official web portal to all federal, state and local government web resources and services.